Volver al catálogo

COSMOS 2346

ActivoMilitarPO
NORAD 24953·PAYLOAD·🇷🇺 Russia

Lanzado Sep 23, 1997 desde Plesetsk Cosmodrome

Loading…

Próximos Pases (próximas 24 horas)

TLE

ActualizadoSource: Space-Track

Época: Sep 14, 2026, 13:14 UTC

1 24953U 97052A   26257.55168295  .00000033  00000-0  16501-4 0  9992
2 24953  82.9185 280.2010 0040927  73.1563  90.5013 13.79830382458692

Sigue COSMOS 2346 en tiempo real con AllMySat

Download on the App Store